• Em Portugal
  • Lista de países
  • Para 7 dias
  • Temperatura da água
  • Mapas de satélite
  • Mapa do tempo
  • Widgets de tempo
  • user-avatar
    Iniciar Sessão

    Previsão horária em Poswietne

    Hoje, 26 Setembro, Quarta-feira

    Tempo Temperatura Precipitação Vento Pressão Humidade
    00:00 +6°C° 0 mm 2 m/s 763 mmHg 73%
    01:00 +5°C° 0 mm 2 m/s 763 mmHg 73%
    02:00 +5°C° 0 mm 2 m/s 763 mmHg 73%
    03:00 +5°C° 0 mm 2 m/s 762 mmHg 73%
    04:00 +5°C° 0 mm 2 m/s 762 mmHg 73%
    05:00 +5°C° 0 mm 2 m/s 762 mmHg 71%
    06:00 +5°C° 0 mm 3 m/s 762 mmHg 68%
    07:00 +5°C° 0 mm 3 m/s 762 mmHg 66%
    08:00 +7°C° 0 mm 4 m/s 762 mmHg 60%
    09:00 +10°C° 0 mm 4 m/s 761 mmHg 54%
    10:00 +10°C° 0 mm 5 m/s 761 mmHg 48%
    11:00 +13°C° 0 mm 5 m/s 761 mmHg 45%
    12:00 +14°C° 0 mm 5 m/s 760 mmHg 41%
    13:00 +15°C° 0 mm 5 m/s 759 mmHg 38%
    14:00 +15°C° 0 mm 5 m/s 759 mmHg 40%
    15:00 +15°C° 0 mm 4 m/s 758 mmHg 41%
    16:00 +15°C° 0 mm 4 m/s 758 mmHg 42%
    17:00 +14°C° 0 mm 4 m/s 758 mmHg 45%
    18:00 +13°C° 0 mm 4 m/s 757 mmHg 48%
    19:00 +12°C° 0 mm 4 m/s 757 mmHg 51%
    20:00 +12°C° 0 mm 4 m/s 757 mmHg 51%
    21:00 +12°C° 0 mm 4 m/s 757 mmHg 51%
    22:00 +12°C° 0 mm 4 m/s 757 mmHg 51%
    23:00 +12°C° 0 mm 4 m/s 757 mmHg 52%

    Amanhã, 27 Setembro, Quinta-feira

    Tempo Temperatura Precipitação Vento Pressão Humidade
    00:00 +12°C° 0 mm 4 m/s 757 mmHg 53%
    01:00 +12°C° 0 mm 4 m/s 757 mmHg 54%
    02:00 +12°C° 0 mm 4 m/s 757 mmHg 55%
    03:00 +12°C° 0 mm 4 m/s 757 mmHg 56%
    04:00 +11°C° 0 mm 4 m/s 757 mmHg 57%
    05:00 +11°C° 0 mm 4 m/s 757 mmHg 59%
    06:00 +11°C° 0 mm 4 m/s 757 mmHg 60%
    07:00 +11°C° 0 mm 4 m/s 757 mmHg 61%
    08:00 +13°C° 0 mm 4 m/s 757 mmHg 60%
    09:00 +15°C° 0 mm 4 m/s 757 mmHg 58%
    10:00 +18°C° 0 mm 4 m/s 757 mmHg 57%
    11:00 +19°C° 0 mm 4 m/s 756 mmHg 57%
    12:00 +20°C° 0 mm 4 m/s 756 mmHg 57%
    13:00 +22°C° 0 mm 4 m/s 755 mmHg 56%
    14:00 +22°C° 0 mm 3 m/s 755 mmHg 57%
    15:00 +22°C° 0 mm 3 m/s 754 mmHg 58%
    16:00 +22°C° 0 mm 3 m/s 753 mmHg 58%
    17:00 +20°C° 0 mm 3 m/s 753 mmHg 64%
    18:00 +19°C° 0 mm 3 m/s 753 mmHg 70%
    19:00 +17°C° 0 mm 2 m/s 752 mmHg 75%
    20:00 +16°C° 0 mm 2 m/s 752 mmHg 74%
    21:00 +16°C° 0 mm 3 m/s 752 mmHg 73%
    22:00 +16°C° 0 mm 3 m/s 752 mmHg 72%
    23:00 +14°C° 0 mm 3 m/s 751 mmHg 71%

    Depois de amanhã, 28 Setembro, Sexta-feira

    Tempo Temperatura Precipitação Vento Pressão Humidade
    00:00 +14°C° 0 mm 3 m/s 750 mmHg 70%
    01:00 +13°C° 0 mm 3 m/s 750 mmHg 69%
    02:00 +13°C° 0 mm 3 m/s 750 mmHg 68%
    03:00 +12°C° 0 mm 3 m/s 749 mmHg 68%
    04:00 +11°C° 0 mm 3 m/s 749 mmHg 67%
    05:00 +11°C° 0 mm 3 m/s 749 mmHg 69%
    06:00 +11°C° 0 mm 3 m/s 749 mmHg 70%
    07:00 +11°C° 0 mm 3 m/s 750 mmHg 71%
    08:00 +12°C° 0 mm 3 m/s 750 mmHg 72%
    09:00 +12°C° 0 mm 3 m/s 750 mmHg 74%
    10:00 +13°C° 0 mm 3 m/s 751 mmHg 75%
    11:00 +14°C° 0 mm 3 m/s 751 mmHg 72%
    12:00 +14°C° 0 mm 3 m/s 751 mmHg 69%
    13:00 +14°C° 0 mm 3 m/s 751 mmHg 67%
    14:00 +16°C° 0 mm 3 m/s 751 mmHg 62%
    15:00 +16°C° 0 mm 3 m/s 751 mmHg 57%
    16:00 +15°C° 0 mm 4 m/s 750 mmHg 53%
    17:00 +13°C° 0 mm 3 m/s 751 mmHg 57%
    18:00 +13°C° 0 mm 2 m/s 751 mmHg 61%
    19:00 +10°C° 0 mm 2 m/s 751 mmHg 65%
    20:00 +10°C° 0 mm 2 m/s 752 mmHg 65%
    21:00 +10°C° 0 mm 2 m/s 752 mmHg 65%
    22:00 +10°C° 0 mm 2 m/s 753 mmHg 66%
    23:00 +9°C° 0 mm 2 m/s 753 mmHg 68%

    29 Setembro, Sábado

    Tempo Temperatura Precipitação Vento Pressão Humidade
    00:00 +8°C° 0 mm 2 m/s 753 mmHg 70%
    01:00 +7°C° 0 mm 2 m/s 753 mmHg 73%
    02:00 +7°C° 0 mm 2 m/s 754 mmHg 74%
    03:00 +6°C° 0 mm 2 m/s 754 mmHg 76%
    04:00 +5°C° 0 mm 2 m/s 754 mmHg 77%
    05:00 +5°C° 0 mm 2 m/s 754 mmHg 78%
    06:00 +6°C° 0 mm 2 m/s 755 mmHg 78%
    07:00 +6°C° 0 mm 2 m/s 755 mmHg 78%
    08:00 +7°C° 0 mm 2 m/s 755 mmHg 70%
    09:00 +9°C° 0 mm 2 m/s 756 mmHg 62%
    10:00 +12°C° 0 mm 2 m/s 756 mmHg 54%
    11:00 +13°C° 0 mm 2 m/s 756 mmHg 50%
    12:00 +14°C° 0 mm 2 m/s 756 mmHg 46%
    13:00 +14°C° 0 mm 2 m/s 756 mmHg 41%
    14:00 +14°C° 0 mm 2 m/s 756 mmHg 41%
    15:00 +14°C° 0 mm 2 m/s 756 mmHg 42%
    16:00 +14°C° 0 mm 1 m/s 756 mmHg 42%
    17:00 +13°C° 0 mm 1 m/s 756 mmHg 47%
    18:00 +11°C° 0 mm 1 m/s 756 mmHg 53%
    19:00 +8°C° 0 mm 0 m/s 756 mmHg 58%
    20:00 +8°C° 0 mm 0 m/s 756 mmHg 59%
    21:00 +9°C° 0 mm 1 m/s 757 mmHg 61%
    22:00 +8°C° 0 mm 1 m/s 757 mmHg 62%
    23:00 +8°C° 0 mm 1 m/s 757 mmHg 63%

    30 Setembro, Domingo

    Tempo Temperatura Precipitação Vento Pressão Humidade
    00:00 +8°C° 0 mm 1 m/s 756 mmHg 65%
    01:00 +7°C° 0 mm 1 m/s 756 mmHg 66%
    02:00 +7°C° 0 mm 1 m/s 756 mmHg 67%
    03:00 +7°C° 0 mm 1 m/s 756 mmHg 69%
    04:00 +7°C° 0 mm 1 m/s 755 mmHg 70%
    05:00 +7°C° 0 mm 1 m/s 755 mmHg 69%
    06:00 +7°C° 0 mm 1 m/s 755 mmHg 69%
    07:00 +7°C° 0 mm 1 m/s 755 mmHg 68%
    08:00 +10°C° 0 mm 1 m/s 755 mmHg 60%
    09:00 +12°C° 0 mm 2 m/s 755 mmHg 52%
    10:00 +14°C° 0 mm 2 m/s 755 mmHg 43%
    11:00 +15°C° 0 mm 2 m/s 754 mmHg 40%
    12:00 +16°C° 0 mm 2 m/s 753 mmHg 38%
    13:00 +16°C° 0 mm 3 m/s 753 mmHg 35%
    14:00 +16°C° 0 mm 3 m/s 752 mmHg 36%
    15:00 +16°C° 0 mm 3 m/s 751 mmHg 37%
    16:00 +16°C° 0 mm 3 m/s 750 mmHg 39%
    17:00 +13°C° 0 mm 3 m/s 750 mmHg 44%
    18:00 +12°C° 0 mm 2 m/s 750 mmHg 49%
    19:00 +9°C° 0 mm 2 m/s 750 mmHg 54%
    20:00 +9°C° 0 mm 2 m/s 749 mmHg 55%
    21:00 +8°C° 0 mm 2 m/s 749 mmHg 56%
    22:00 +8°C° 0 mm 2 m/s 748 mmHg 57%
    23:00 +7°C° 0 mm 2 m/s 748 mmHg 58%

    1 Outubro, Segunda-feira

    Tempo Temperatura Precipitação Vento Pressão Humidade
    00:00 +7°C° 0 mm 2 m/s 747 mmHg 58%
    01:00 +7°C° 0 mm 2 m/s 747 mmHg 59%
    02:00 +7°C° 0 mm 2 m/s 746 mmHg 60%
    03:00 +6°C° 0 mm 2 m/s 745 mmHg 62%
    04:00 +6°C° 0 mm 2 m/s 745 mmHg 63%
    05:00 +6°C° 0 mm 2 m/s 744 mmHg 64%
    06:00 +7°C° 0 mm 1 m/s 744 mmHg 66%
    07:00 +8°C° 0 mm 1 m/s 744 mmHg 67%
    08:00 +9°C° 0 mm 2 m/s 744 mmHg 61%
    09:00 +12°C° 0 mm 2 m/s 743 mmHg 55%
    10:00 +14°C° 0 mm 2 m/s 743 mmHg 49%
    11:00 +15°C° 0 mm 2 m/s 743 mmHg 46%
    12:00 +16°C° 0 mm 2 m/s 743 mmHg 43%
    13:00 +17°C° 0 mm 2 m/s 742 mmHg 41%
    14:00 +17°C° 0 mm 2 m/s 742 mmHg 42%
    15:00 +16°C° 0 mm 2 m/s 742 mmHg 43%
    16:00 +16°C° 0 mm 2 m/s 742 mmHg 44%
    17:00 +14°C° 0 mm 2 m/s 742 mmHg 50%
    18:00 +12°C° 0 mm 2 m/s 743 mmHg 56%
    19:00 +10°C° 0 mm 2 m/s 743 mmHg 61%
    20:00 +9°C° 0 mm 2 m/s 744 mmHg 63%
    21:00 +9°C° 0 mm 2 m/s 744 mmHg 65%
    22:00 +8°C° 0 mm 2 m/s 744 mmHg 67%
    23:00 +7°C° 0 mm 2 m/s 745 mmHg 70%
    Mostrar mais